This is the latest recevied weather packets stored in our database for station/object KI5NXU. If no packets are shown the sender has not sent any weather packets the latest 10 day(s).
| Time | Temp. | Humidity | Pressure | Rain* | Wind** | Luminosity | Snow |
|---|---|---|---|---|---|---|---|
| 1788108377 | 35.56° C | 44% | 1016.3 hPa | 0 mm | - | 783 W/m² | - |
| 1788108073 | 35° C | 44% | 1016.7 hPa | 0 mm | - | 778 W/m² | - |
| 1788107770 | 35° C | 45% | 1016.6 hPa | 0 mm | - | 743 W/m² | - |
| 1788107470 | 34.44° C | 47% | 1016.1 hPa | 0 mm | - | 737 W/m² | - |
| 1788107165 | 33.89° C | 48% | 1016.7 hPa | 0 mm | - | 728 W/m² | - |
| 1788106861 | 33.89° C | 50% | 1016.4 hPa | 0 mm | - | 732 W/m² | - |
| 1788106560 | 33.89° C | 48% | 1016.6 hPa | 0 mm | - | 744 W/m² | - |
| 1788106255 | 33.89° C | 50% | 1016.7 hPa | 0 mm | - | 699 W/m² | - |
| 1788105951 | 33.89° C | 50% | 1016.7 hPa | 0 mm | - | 691 W/m² | - |
| 1788105646 | 33.33° C | 50% | 1016.7 hPa | 0 mm | - | 690 W/m² | - |
| 1788105343 | 33.33° C | 50% | 1016.6 hPa | 0 mm | - | 689 W/m² | - |
| 1788105038 | 33.33° C | 50% | 1016.6 hPa | 0 mm | - | 658 W/m² | - |
| 1788104733 | 33.33° C | 50% | 1017 hPa | 0 mm | - | 626 W/m² | - |
| 1788104429 | 32.78° C | 50% | 1016.7 hPa | 0 mm | - | 624 W/m² | - |
| 1788104125 | 32.78° C | 51% | 1016.8 hPa | 0 mm | - | 567 W/m² | - |
| 1788103826 | 32.78° C | 51% | 1016.4 hPa | 0 mm | - | 545 W/m² | - |
| 1788103520 | 32.22° C | 52% | 1016.8 hPa | 0 mm | - | 547 W/m² | - |
| 1788103219 | 32.78° C | 52% | 1016.4 hPa | 0 mm | - | 548 W/m² | - |
| 1788102919 | 32.22° C | 52% | 1016.6 hPa | 0 mm | - | 515 W/m² | - |
| 1788102614 | 32.22° C | 52% | 1016.8 hPa | 0 mm | - | 502 W/m² | - |
| 1788102313 | 32.22° C | 53% | 1016.4 hPa | 0 mm | - | 468 W/m² | - |
| 1788102009 | 31.67° C | 53% | 1016.6 hPa | 0 mm | - | 446 W/m² | - |
| 1788101707 | 31.67° C | 53% | 1016.3 hPa | 0 mm | - | 399 W/m² | - |
| 1788101403 | 31.67° C | 53% | 1016.4 hPa | 0 mm | - | 368 W/m² | - |
| 1788101099 | 31.67° C | 54% | 1016.6 hPa | 0 mm | - | 346 W/m² | - |
* Rain latest hour (hover to see other rain measurements)
** Current wind speed in m/s (hover to see current wind gust speed)